This demonstration page uses our WeatherBlox Daily Observations layout. Learn more.

Left ArrowRight Arrow

44.8408, -93.29828

Hourly Observations for May 13, 2021

Temp ( °F °C ) Dew Point ( °F °C ) Humidity (%) Winds ( mph kmh ) Pressure ( in mb ) Visibility ( mi km ) Precip ( " mm )
12:53 am 00:53 Clear 54 12.2 28 -2.2 37 37 S 5 7 30.35 1028 10 16 0.00 0.00
1:53 am 01:53 Clear 53 11.7 27 -2.8 37 37 Calm 30.35 1028 10 16 0.00 0.00
2:53 am 02:53 Clear 53 11.7 27 -2.8 37 37 Calm 30.35 1028 10 16 0.00 0.00
3:53 am 03:53 Clear 52 11.1 27 -2.8 38 38 SW 3 6 30.35 1028 10 16 0.00 0.00
4:53 am 04:53 Mostly Clear 51 10.6 28 -2.2 41 41 SW 5 7 30.36 1028 10 16 0.00 0.00
5:53 am 05:53 Sunny 49 9.4 28 -2.2 44 44 Calm 30.36 1028 10 16 0.00 0.00
6:53 am 06:53 Sunny 49 9.4 30 -1.1 48 48 VRB 3 6 30.37 1029 10 16 0.00 0.00
7:53 am 07:53 Sunny 52 11.1 31 -0.6 45 45 SSW 3 6 30.38 1029 10 16 0.00 0.00
8:53 am 08:53 Sunny 58 14.4 30 -1.1 35 35 SW 8 13 30.37 1029 10 16 0.00 0.00
9:53 am 09:53 Sunny 61 16.1 30 -1.1 31 31 SW 9 15 30.37 1028 10 16 0.00 0.00
10:53 am 10:53 Sunny 64 17.8 29 -1.7 27 27 SW 10 17 30.35 1028 10 16 0.00 0.00
11:53 am 11:53 Sunny 66 18.9 27 -2.8 23 23 WSW 10 17 30.34 1027 10 16 0.00 0.00
12:53 pm 12:53 Partly Cloudy 68 20 26 -3.3 21 21 SSW 12 19 30.31 1026 10 16 0.00 0.00
1:53 pm 13:53 Partly Cloudy 68 20 25 -3.9 20 20 S 12 19 30.29 1026 10 16 0.00 0.00
2:53 pm 14:53 Mostly Cloudy 68 20 25 -3.9 20 20 S 14 22 30.28 1025 10 16 0.00 0.00
3:53 pm 15:53 Mostly Cloudy 69 20.6 25 -3.9 19 19 SSE 10 17 30.25 1024 10 16 0.00 0.00
4:53 pm 16:53 Mostly Cloudy 70 21.1 24 -4.4 18 18 SW 8 13 30.23 1024 10 16 0.00 0.00
5:53 pm 17:53 Partly Cloudy 69 20.6 24 -4.4 18 18 S 10 17 30.22 1023 10 16 0.00 0.00
6:53 pm 18:53 Partly Cloudy 69 20.6 23 -5 17 17 S 14 22 30.20 1023 10 16 0.00 0.00
7:53 pm 19:53 Mostly Sunny 68 20 23 -5 18 18 S 12 19 30.20 1023 10 16 0.00 0.00
8:53 pm 20:53 Mostly Clear 63 17.2 25 -3.9 24 24 SSE 8 13 30.20 1023 10 16 0.00 0.00
9:53 pm 21:53 Mostly Clear 62 16.7 26 -3.3 25 25 SSE 8 13 30.20 1023 10 16 0.00 0.00
10:53 pm 22:53 Clear 59 15 26 -3.3 28 28 SSE 8 13 30.21 1023 10 16 0.00 0.00
11:53 pm 23:53 Mostly Clear 58 14.4 27 -2.8 31 31 S 8 13 30.22 1023 10 16 0.00 0.00

Powered by AerisWeather